BAGASKAR Weather Reports


time (UTC)temp
C
wind
direction
speed
KPH
gust
KPH
rain 1hr
cm
rain 24hr
cm
rain mn
cm
humidity
%
barometer
mb
20260906050124 10 352 17.7 29.0 0.00 0.00 0.00 1005.5
20260906044454 9 335 14.5 24.1 0.00 0.00 0.00 1005.4
20260906042124 9 333 17.7 29.0 0.00 0.00 0.00 1005.1
20260906040454 9 339 17.7 30.6 0.00 0.00 0.00 1004.9
20260906034454 9 338 17.7 30.6 0.00 0.00 0.00 1004.5
20260906032124 9 343 17.7 30.6 0.00 0.00 0.00 1004.2
20260906030124 9 340 19.3 32.2 0.00 0.00 0.00 1004.0
20260906024125 8 336 17.7 30.6 0.00 0.00 0.00 1003.8
20260906022124 8 338 19.3 33.8 0.00 0.00 0.00 1003.4
20260906020454 9 339 17.7 27.4 0.00 0.00 0.00 1003.3
20260906014456 9 345 16.1 29.0 0.00 0.00 0.00 1003.1
20260906012124 10 350 19.3 32.2 0.00 0.00 0.00 1002.8
20260906010123 10 345 17.7 33.8 0.00 0.00 0.00 1002.7
20260906004125 10 345 16.1 27.4 0.00 0.00 0.00 1002.4
20260906002455 10 348 16.1 24.1 0.00 0.00 0.00 1002.2
20260906000123 11 348 14.5 27.4 0.00 0.00 0.00 1001.9
20260905234123 11 356 19.3 30.6 0.00 0.00 0.00 1001.7
20260905232123 12 356 14.5 22.5 0.00 0.00 0.00 1001.5
20260905230123 12 10 17.7 24.1 0.00 0.00 0.00 1001.3
20260905224124 12 353 14.5 22.5 0.00 0.00 0.00 1001.1
20260905222122 12 352 14.5 22.5 0.00 0.00 0.00 1001.1
20260905220453 12 335 8.0 12.9 0.00 0.00 0.00 1000.9
20260905214454 12 350 11.3 17.7 0.00 0.00 0.00 1000.7
20260905212122 12 349 11.3 16.1 0.00 0.00 0.00 1000.5
20260905210123 13 347 9.7 17.7 0.00 0.00 0.00 1000.3
20260905204123 13 340 12.9 19.3 0.00 0.00 0.00 1000.1
20260905202123 13 340 11.3 17.7 0.00 0.00 0.00 999.9
20260905200122 14 337 14.5 20.9 0.00 0.00 0.00 999.6
20260905194453 14 336 12.9 20.9 0.00 0.00 0.00 999.4
20260905192123 15 331 12.9 22.5 0.00 0.00 0.00 999.3
20260905190123 15 327 12.9 22.5 0.00 0.00 0.00 999.3
20260905184123 15 323 12.9 19.3 0.00 0.00 0.00 999.1
20260905180451 15 330 11.3 17.7 0.00 0.00 0.00 998.9
20260905174122 15 330 11.3 17.7 0.00 0.00 0.00 998.7
20260905172451 15 328 12.9 17.7 0.00 0.00 0.00 998.6
20260905170122 15 326 14.5 20.9 0.00 0.00 0.00 998.3
20260905164453 16 304 11.3 14.5 0.00 0.00 0.00 998.0
20260905162124 16 312 11.3 17.7 0.00 0.00 0.00 997.8
20260905160453 16 318 9.7 16.1 0.00 0.00 0.00 997.6
20260905154123 16 326 9.7 16.1 0.00 0.00 0.00 997.4
20260905152123 17 334 12.9 22.5 0.00 0.00 0.00 997.3
20260905150121 17 281 6.4 14.5 0.00 0.00 0.00 997.2
20260905144122 16 264 20.9 27.4 0.00 0.00 0.00 997.1
20260905142122 16 258 24.1 29.0 0.00 0.00 0.00 996.8
20260905140122 17 257 24.1 30.6 0.00 0.00 0.00 996.6
20260905134121 17 261 25.7 35.4 0.00 0.00 0.00 996.5
20260905132122 17 259 24.1 30.6 0.00 0.00 0.00 996.4
20260905130456 18 258 24.1 29.0 0.00 0.00 0.00 996.4
20260905124121 17 255 25.7 33.8 0.00 0.00 0.00 996.3
20260905122122 18 256 25.7 32.2 0.00 0.00 0.00 996.2
20260905120121 18 254 25.7 30.6 0.00 0.00 0.00 996.1
20260905114121 18 244 24.1 27.4 0.00 0.00 0.00 996.0
20260905112123 17 246 22.5 25.7 0.00 0.00 0.00 996.0
20260905110120 17 241 20.9 24.1 0.00 0.00 0.00 995.9
20260905104452 17 241 17.7 20.9 0.00 0.00 0.00 995.8
20260905102452 16 312 3.2 8.0 0.00 0.00 0.00 995.6
20260905100120 16 338 6.4 12.9 0.00 0.00 0.00 995.4
20260905094450 16 339 8.0 12.9 0.00 0.00 0.00 995.3
20260905092120 16 312 6.4 9.7 0.00 0.00 0.00 995.2
20260905090120 15 303 8.0 14.5 0.00 0.00 0.00 995.1
20260905084452 15 308 8.0 14.5 0.00 0.00 0.00 994.9
20260905082120 14 332 4.8 11.3 0.00 0.00 0.00 994.9
20260905080120 14 338 9.7 17.7 0.00 0.00 0.00 994.8
20260905074450 14 330 8.0 12.9 0.00 0.00 0.00 994.7
20260905072120 13 329 8.0 12.9 0.00 0.00 0.00 994.5
20260905070122 13 330 9.7 14.5 0.00 0.00 0.00 994.4
20260905064120 14 335 8.0 14.5 0.00 0.00 0.00 994.3
20260905062120 13 333 4.8 9.7 0.00 0.00 0.00 994.1
20260905060120 12 325 6.4 9.7 0.00 0.00 0.00 994.1
20260905054120 12 309 3.2 8.0 0.00 0.00 0.00 994.0
20260905052120 11 331 3.2 6.4 0.00 0.00 0.00 994.0